,,Stat5,,Stat1,,Stat2,,Stat3,,Stat4,,Wind1,,Wind1,
time,status,PA1M_AVG,status,PR1M_SUM,status,RH1M_AVG,status,SR1M_AVG,status,TA1M_AVG,status,W1dAve1m,status,W1sAve1m,
2003-01-08, 00:00:01,VALID,920.017,VALID,0,VALID,98.5761,VALID,-0.0509425,VALID,20.2468,VALID,57,VALID,0.777344,
2003-01-08, 00:01:00,VALID,920,VALID,0,VALID,98.6167,VALID,-0.101885,VALID,20.2465,VALID,55,VALID,0.763839,
2003-01-08, 00:02:00,VALID,920.003,VALID,0,VALID,98.6282,VALID,-0.0849042,VALID,20.2266,VALID,44,VALID,0.949119,
2003-01-08, 00:03:00,VALID,919.994,VALID,0,VALID,98.6206,VALID,-0.0679233,VALID,20.2107,VALID,58,VALID,1.0096,
2003-01-08, 00:04:00,VALID,919.984,VALID,0,VALID,98.6765,VALID,-0.101885,VALID,20.1981,VALID,53,VALID,0.679688,
2003-01-08, 00:05:00,VALID,919.975,VALID,0,VALID,98.6409,VALID,-0.0339617,VALID,20.172,VALID,61,VALID,0.773226,
2003-01-08, 00:06:00,VALID,919.973,VALID,0,VALID,98.66,VALID,-0.0849042,VALID,20.1558,VALID,60,VALID,0.799959,
2003-01-08, 00:07:00,VALID,919.976,VALID,0,VALID,98.6816,VALID,-0.0849042,VALID,20.1431,VALID,58,VALID,1.1154,
2003-01-08, 00:08:00,VALID,919.976,VALID,0,VALID,98.7083,VALID,-0.0339617,VALID,20.127,VALID,66,VALID,1.08103,
2003-01-08, 00:09:00,VALID,919.994,VALID,0,VALID,98.721,VALID,-0.0679233,VALID,20.1071,VALID,37,VALID,1.00441,
2003-01-08, 00:10:00,VALID,920.005,VALID,0,VALID,98.7821,VALID,-0.0339617,VALID,20.1071,VALID,52,VALID,0.629123,
2003-01-08, 00:11:00,VALID,920.011,VALID,0,VALID,98.8126,VALID,-0.0849042,VALID,20.1138,VALID,44,VALID,0.72389,
2003-01-08, 00:12:00,VALID,920.03,VALID,0,VALID,98.8469,VALID,-0.0849042,VALID,20.1173,VALID,28,VALID,0.636613,
2003-01-08, 00:13:00,VALID,920.034,VALID,0,VALID,98.8634,VALID,-0.101885,VALID,20.12,VALID,46,VALID,0.693257,
2003-01-08, 00:14:00,VALID,920.03,VALID,0,VALID,98.8469,VALID,-0.0849042,VALID,20.1302,VALID,36,VALID,0.771875,
2003-01-08, 00:15:00,VALID,920.023,VALID,0,VALID,98.8049,VALID,-0.0169808,VALID,20.1138,VALID,53,VALID,0.822545,
2003-01-08, 00:16:00,VALID,919.998,VALID,0,VALID,98.8278,VALID,-0.0849042,VALID,20.1044,VALID,43,VALID,0.557893,
2003-01-08, 00:17:00,VALID,919.998,VALID,0,VALID,98.8685,VALID,-0.0509425,VALID,20.1001,VALID,31,VALID,0.525174,
2003-01-08, 00:18:00,VALID,919.995,VALID,0,VALID,98.8533,VALID,-0.0339617,VALID,20.117,VALID,69,VALID,0.706209,
2003-01-08, 00:19:00,VALID,919.969,VALID,0,VALID,98.8418,VALID,-0.0509425,VALID,20.117,VALID,74,VALID,0.401394,
2003-01-08, 00:20:00,VALID,919.967,VALID,0,VALID,98.8215,VALID,-0.0849042,VALID,20.124,VALID,74,VALID,0.432155,
2003-01-08, 00:21:00,VALID,919.952,VALID,0,VALID,98.8202,VALID,-0.0509425,VALID,20.1205,VALID,74,VALID,0.320313,
2003-01-08, 00:22:00,VALID,919.95,VALID,0,VALID,98.8304,VALID,-0.0339617,VALID,20.1334,VALID,74,VALID,0.213393,
2003-01-08, 00:23:00,VALID,919.936,VALID,0,VALID,98.8533,VALID,0.0509425,VALID,20.1379,VALID,69,VALID,0.288862,
2003-01-08, 00:24:00,VALID,919.939,VALID,0,VALID,98.8266,VALID,0.0339617,VALID,20.1513,VALID,60,VALID,0.393229,
2003-01-08, 00:25:00,VALID,919.925,VALID,0,VALID,98.8151,VALID,0.0169808,VALID,20.1645,VALID,46,VALID,0.295436,
2003-01-08, 00:26:00,VALID,919.917,VALID,0,VALID,98.8062,VALID,0.0509425,VALID,20.1801,VALID,39,VALID,0.326436,
2003-01-08, 00:27:00,VALID,919.911,VALID,0,VALID,98.7846,VALID,0.0169808,VALID,20.1938,VALID,45,VALID,0.289885,
2003-01-08, 00:28:00,VALID,919.902,VALID,0,VALID,98.7706,VALID,0,VALID,20.203,VALID,45,VALID,0.28817,
2003-01-08, 00:29:00,VALID,919.903,VALID,0,VALID,98.7465,VALID,0.0509425,VALID,20.2092,VALID,45,VALID,0.267188,
2003-01-08, 00:30:00,VALID,919.896,VALID,0,VALID,98.7019,VALID,0.0339617,VALID,20.2251,VALID,53,VALID,0.397636,
2003-01-08, 00:31:00,VALID,919.89,VALID,0,VALID,98.6295,VALID,0.0509425,VALID,20.242,VALID,68,VALID,0.487413,
2003-01-08, 00:32:00,VALID,919.89,VALID,0,VALID,98.5455,VALID,0,VALID,20.2259,VALID,88,VALID,0.499383,
2003-01-08, 00:33:00,VALID,919.891,VALID,0,VALID,98.6396,VALID,0.0169808,VALID,20.2286,VALID,106,VALID,0.447213,
2003-01-08, 00:34:00,VALID,919.884,VALID,0,VALID,98.6104,VALID,0.0169808,VALID,20.245,VALID,104,VALID,0.399054,
2003-01-08, 00:35:00,VALID,919.877,VALID,0,VALID,98.674,VALID,0,VALID,20.2477,VALID,134,VALID,0.467411,
2003-01-08, 00:36:00,VALID,919.869,VALID,0,VALID,98.6867,VALID,0,VALID,20.2778,VALID,119,VALID,0.65625,
2003-01-08, 00:37:00,VALID,919.855,VALID,0,VALID,98.6473,VALID,0.0339617,VALID,20.2975,VALID,140,VALID,0.405849,
2003-01-08, 00:38:00,VALID,919.848,VALID,0,VALID,98.6053,VALID,0.0339617,VALID,20.2868,VALID,97,VALID,0.394097,
2003-01-08, 00:39:00,VALID,919.834,VALID,0,VALID,98.5761,VALID,0.0169808,VALID,20.2905,VALID,101,VALID,0.333059,
2003-01-08, 00:40:00,VALID,919.841,VALID,0,VALID,98.5506,VALID,0.0679233,VALID,20.2768,VALID,122,VALID,0.521537,
2003-01-08, 00:41:00,VALID,919.846,VALID,0,VALID,98.5074,VALID,0.0509425,VALID,20.2843,VALID,111,VALID,0.485403,
2003-01-08, 00:42:00,VALID,919.848,VALID,0,VALID,98.4947,VALID,0.0679233,VALID,20.2773,VALID,113,VALID,0.743527,
2003-01-08, 00:43:00,VALID,919.848,VALID,0,VALID,98.487,VALID,0.0169808,VALID,20.2647,VALID,105,VALID,0.771205,
2003-01-08, 00:44:00,VALID,919.838,VALID,0,VALID,98.468,VALID,0.0169808,VALID,20.2544,VALID,111,VALID,0.632212,
2003-01-08, 00:45:00,VALID,919.841,VALID,0,VALID,98.4286,VALID,0.0169808,VALID,20.2358,VALID,106,VALID,0.58138,
2003-01-08, 00:46:00,VALID,919.82,VALID,0,VALID,98.4464,VALID,0.0509425,VALID,20.2189,VALID,133,VALID,0.383018,
2003-01-08, 00:47:00,VALID,919.791,VALID,0,VALID,98.4667,VALID,0.0339617,VALID,20.2122,VALID,134,VALID,0.399916,
2003-01-08, 00:48:00,VALID,919.775,VALID,0,VALID,98.4565,VALID,0.0339617,VALID,20.2027,VALID,130,VALID,0.50699,
2003-01-08, 00:49:00,VALID,919.744,VALID,0,VALID,98.5061,VALID,0.0679233,VALID,20.1998,VALID,131,VALID,0.68683,
2003-01-08, 00:50:00,VALID,919.723,VALID,0,VALID,98.5048,VALID,0.0849042,VALID,20.1931,VALID,131,VALID,0.486161,
2003-01-08, 00:51:00,VALID,919.683,VALID,0,VALID,98.4667,VALID,0.0679233,VALID,20.1801,VALID,138,VALID,0.488782,
2003-01-08, 00:52:00,VALID,919.673,VALID,0,VALID,98.4909,VALID,0.0509425,VALID,20.1613,VALID,139,VALID,0.39388,
2003-01-08, 00:53:00,VALID,919.66,VALID,0,VALID,98.5036,VALID,0.0169808,VALID,20.1483,VALID,113,VALID,0.637747,
2003-01-08, 00:54:00,VALID,919.659,VALID,0,VALID,98.4807,VALID,0.0679233,VALID,20.1249,VALID,84,VALID,0.868666,
2003-01-08, 00:55:00,VALID,919.649,VALID,0,VALID,98.4845,VALID,0.0509425,VALID,20.116,VALID,63,VALID,0.607525,
2003-01-08, 00:56:00,VALID,919.66,VALID,0,VALID,98.5315,VALID,0.0679233,VALID,20.1058,VALID,75,VALID,0.642857,
2003-01-08, 00:57:00,VALID,919.662,VALID,0,VALID,98.5608,VALID,0.0849042,VALID,20.0994,VALID,66,VALID,0.475446,
2003-01-08, 00:58:00,VALID,919.67,VALID,0,VALID,98.5646,VALID,0.0849042,VALID,20.1061,VALID,66,VALID,0.413662,
2003-01-08, 00:59:00,VALID,919.662,VALID,0,VALID,98.5137,VALID,0.0509425,VALID,20.0926,VALID,51,VALID,0.453342,
2003-01-08, 01:00:00,VALID,919.663,VALID,0,VALID,98.4413,VALID,0.101885,VALID,20.08,VALID,66,VALID,0.411184,
2003-01-08, 01:01:00,VALID,919.637,VALID,0,VALID,98.4273,VALID,0.101885,VALID,20.0633,VALID,109,VALID,0.575802,
2003-01-08, 01:02:00,VALID,919.635,VALID,0,VALID,98.4464,VALID,0.0679233,VALID,20.067,VALID,104,VALID,0.404811,
2003-01-08, 01:03:00,VALID,919.615,VALID,0,VALID,98.4832,VALID,0.0339617,VALID,20.0772,VALID,114,VALID,0.537946,
2003-01-08, 01:04:01,VALID,919.597,VALID,0,VALID,98.5481,VALID,0.0169808,VALID,20.0837,VALID,136,VALID,0.734821,
2003-01-08, 01:05:00,VALID,919.584,VALID,0,VALID,98.5748,VALID,0.0679233,VALID,20.0899,VALID,112,VALID,0.504607,
2003-01-08, 01:06:00,VALID,919.581,VALID,0,VALID,98.5862,VALID,0.0509425,VALID,20.0902,VALID,128,VALID,0.40842,
2003-01-08, 01:07:00,VALID,919.568,VALID,0,VALID,98.6587,VALID,0.0679233,VALID,20.0902,VALID,141,VALID,0.400699,
2003-01-08, 01:08:00,VALID,919.563,VALID,0,VALID,98.6905,VALID,-0.0169808,VALID,20.1041,VALID,138,VALID,0.583615,
2003-01-08, 01:09:00,VALID,919.561,VALID,0,VALID,98.7172,VALID,0,VALID,20.1334,VALID,142,VALID,0.767475,
2003-01-08, 01:10:00,VALID,919.553,VALID,0,VALID,98.7363,VALID,-0.0169808,VALID,20.1396,VALID,131,VALID,0.770089,
2003-01-08, 01:11:00,VALID,919.558,VALID,0,VALID,98.7325,VALID,-0.0339617,VALID,20.159,VALID,151,VALID,0.643304,
2003-01-08, 01:12:00,VALID,919.55,VALID,0,VALID,98.7388,VALID,0,VALID,20.1548,VALID,184,VALID,0.195112,
2003-01-08, 01:13:00,VALID,919.562,VALID,0,VALID,98.7261,VALID,0,VALID,20.1814,VALID,152,VALID,0.564887,
2003-01-08, 01:14:00,VALID,919.559,VALID,0,VALID,98.6765,VALID,0,VALID,20.1884,VALID,150,VALID,0.771998,
2003-01-08, 01:15:00,VALID,919.56,VALID,0,VALID,98.6702,VALID,-0.0339617,VALID,20.1849,VALID,96,VALID,0.418708,
2003-01-08, 01:16:00,VALID,919.567,VALID,0,VALID,98.6702,VALID,0,VALID,20.1846,VALID,102,VALID,0.154605,
2003-01-08, 01:17:00,VALID,919.561,VALID,0,VALID,98.6663,VALID,0,VALID,20.1914,VALID,145,VALID,0.529241,
2003-01-08, 01:18:01,VALID,919.566,VALID,0,VALID,98.6409,VALID,0.0169808,VALID,20.1911,VALID,133,VALID,0.342411,
2003-01-08, 01:19:00,VALID,919.57,VALID,0,VALID,98.6587,VALID,-0.0339617,VALID,20.1879,VALID,110,VALID,0.125601,
2003-01-08, 01:20:00,VALID,919.563,VALID,0,VALID,98.6371,VALID,-0.0169808,VALID,20.1941,VALID,44,VALID,0.650608,
2003-01-08, 01:21:00,VALID,919.572,VALID,0,VALID,98.5722,VALID,-0.0169808,VALID,20.2043,VALID,21,VALID,0.878084,
2003-01-08, 01:22:00,VALID,919.577,VALID,0,VALID,98.4425,VALID,-0.0169808,VALID,20.1809,VALID,26,VALID,0.605363,
2003-01-08, 01:23:00,VALID,919.581,VALID,0,VALID,98.4184,VALID,0,VALID,20.1881,VALID,21,VALID,0.473684,
2003-01-08, 01:24:00,VALID,919.591,VALID,0,VALID,98.384,VALID,-0.0339617,VALID,20.2005,VALID,19,VALID,0.519196,
2003-01-08, 01:25:01,VALID,919.59,VALID,0,VALID,98.3243,VALID,-0.0509425,VALID,20.2043,VALID,33,VALID,0.339286,
2003-01-08, 01:26:00,VALID,919.587,VALID,0,VALID,98.2073,VALID,-0.0169808,VALID,20.2142,VALID,77,VALID,0.308894,
2003-01-08, 01:27:00,VALID,919.564,VALID,0,VALID,98.0725,VALID,-0.0169808,VALID,20.204,VALID,124,VALID,0.568142,
2003-01-08, 01:28:00,VALID,919.533,VALID,0,VALID,98.0013,VALID,0,VALID,20.201,VALID,136,VALID,0.367599,
2003-01-08, 01:29:01,VALID,919.518,VALID,0,VALID,97.9619,VALID,-0.0339617,VALID,20.2003,VALID,145,VALID,0.497044,
2003-01-08, 01:30:00,VALID,919.479,VALID,0,VALID,97.869,VALID,-0.0169808,VALID,20.2003,VALID,138,VALID,0.550164,
2003-01-08, 01:31:00,VALID,919.458,VALID,0,VALID,97.8106,VALID,-0.0169808,VALID,20.214,VALID,133,VALID,0.435937,
2003-01-08, 01:32:01,VALID,919.435,VALID,0,VALID,97.7317,VALID,-0.0339617,VALID,20.2202,VALID,144,VALID,0.514286,
2003-01-08, 01:33:00,VALID,919.406,VALID,0,VALID,97.6719,VALID,0.0169808,VALID,20.2366,VALID,138,VALID,0.435497,
2003-01-08, 01:34:00,VALID,919.407,VALID,0,VALID,97.6236,VALID,0,VALID,20.2328,VALID,137,VALID,0.234592,
2003-01-08, 01:35:00,VALID,919.398,VALID,0,VALID,97.5422,VALID,0,VALID,20.2391,VALID,111,VALID,0.390419,
2003-01-08, 01:36:00,VALID,919.407,VALID,0,VALID,97.4265,VALID,0,VALID,20.2495,VALID,129,VALID,0.127745,
2003-01-08, 01:37:00,VALID,919.393,VALID,0,VALID,97.3769,VALID,0,VALID,20.2493,VALID,180,VALID,0.146382,
2003-01-08, 01:38:00,VALID,919.377,VALID,0,VALID,97.3248,VALID,0.0169808,VALID,20.259,VALID,184,VALID,0.034375,
2003-01-08, 01:39:01,VALID,919.368,VALID,0,VALID,97.2561,VALID,-0.0169808,VALID,20.2786,VALID,159,VALID,0.377902,
2003-01-08, 01:40:00,VALID,919.347,VALID,0,VALID,97.1658,VALID,0,VALID,20.2751,VALID,124,VALID,0.350962,
2003-01-08, 01:41:00,VALID,919.34,VALID,0,VALID,97.1124,VALID,-0.0339617,VALID,20.2781,VALID,86,VALID,0.0486111,
2003-01-08, 01:42:00,VALID,919.318,VALID,0,VALID,97.0552,VALID,-0.0169808,VALID,20.2948,VALID,86,VALID,0.052426,
2003-01-08, 01:43:01,VALID,919.307,VALID,0,VALID,97.0247,VALID,-0.0169808,VALID,20.288,VALID,86,VALID,0.103674,
2003-01-08, 01:44:00,VALID,919.301,VALID,0,VALID,96.9598,VALID,-0.0169808,VALID,20.3012,VALID,86,VALID,0.182155,
2003-01-08, 01:45:00,VALID,919.302,VALID,0,VALID,96.8657,VALID,-0.0169808,VALID,20.301,VALID,86,VALID,0.134821,
2003-01-08, 01:46:01,VALID,919.298,VALID,0,VALID,96.834,VALID,0,VALID,20.2783,VALID,12,VALID,0.27433,
2003-01-08, 01:47:00,VALID,919.304,VALID,0,VALID,96.8988,VALID,0,VALID,20.291,VALID,353,VALID,0.0010016,
2003-01-08, 01:48:00,VALID,919.304,VALID,0,VALID,96.9306,VALID,-0.0169808,VALID,20.2942,VALID,353,VALID,0.202691,
2003-01-08, 01:49:00,VALID,919.3,VALID,0,VALID,96.9382,VALID,0,VALID,20.2948,VALID,341,VALID,0.448191,
2003-01-08, 01:50:00,VALID,919.273,VALID,0,VALID,96.9853,VALID,0,VALID,20.2756,VALID,285,VALID,0.512035,
2003-01-08, 01:51:00,VALID,919.249,VALID,0,VALID,97.143,VALID,-0.0169808,VALID,20.2595,VALID,274,VALID,0.546669,
2003-01-08, 01:52:00,VALID,919.209,VALID,0,VALID,97.2599,VALID,0,VALID,20.2294,VALID,272,VALID,0.287946,
2003-01-08, 01:53:01,VALID,919.189,VALID,0,VALID,97.3757,VALID,-0.0849042,VALID,20.2346,VALID,272,VALID,0.203125,
2003-01-08, 01:54:00,VALID,919.168,VALID,0,VALID,97.4761,VALID,-0.101885,VALID,20.2282,VALID,272,VALID,0.0432692,
2003-01-08, 01:55:00,VALID,919.17,VALID,0,VALID,97.5677,VALID,-0.118866,VALID,20.212,VALID,272,VALID,0.00325521,
2003-01-08, 01:56:00,VALID,919.182,VALID,0,VALID,97.6414,VALID,-0.101885,VALID,20.1988,VALID,272,VALID,0.0228207,
2003-01-08, 01:57:01,VALID,919.187,VALID,0,VALID,97.7012,VALID,-0.101885,VALID,20.2093,VALID,272,VALID,0,
2003-01-08, 01:58:00,VALID,919.198,VALID,0,VALID,97.7584,VALID,-0.101885,VALID,20.2128,VALID,272,VALID,0,
2003-01-08, 01:59:00,VALID,919.208,VALID,0,VALID,97.7622,VALID,-0.101885,VALID,20.219,VALID,269,VALID,0.0582589,
2003-01-08, 02:00:01,VALID,919.224,VALID,0,VALID,97.7838,VALID,-0.101885,VALID,20.2088,VALID,247,VALID,0.225446,
2003-01-08, 02:01:00,VALID,919.223,VALID,0,VALID,97.7266,VALID,-0.101885,VALID,20.2093,VALID,228,VALID,0.257813,
2003-01-08, 02:02:00,VALID,919.223,VALID,0,VALID,97.719,VALID,-0.101885,VALID,20.1926,VALID,228,VALID,0.321832,
2003-01-08, 02:03:00,VALID,919.205,VALID,0,VALID,97.7304,VALID,-0.101885,VALID,20.2021,VALID,245,VALID,0.402344,
2003-01-08, 02:04:00,VALID,919.183,VALID,0,VALID,97.7228,VALID,-0.101885,VALID,20.222,VALID,243,VALID,0.24641,
2003-01-08, 02:05:00,VALID,919.158,VALID,0,VALID,97.7139,VALID,-0.101885,VALID,20.2349,VALID,243,VALID,0.233108,
2003-01-08, 02:06:00,VALID,919.158,VALID,0,VALID,97.7292,VALID,-0.101885,VALID,20.2446,VALID,244,VALID,0.104241,
2003-01-08, 02:07:01,VALID,919.155,VALID,0,VALID,97.7393,VALID,-0.101885,VALID,20.267,VALID,244,VALID,0,
2003-01-08, 02:08:00,VALID,919.152,VALID,0,VALID,97.6656,VALID,-0.101885,VALID,20.2863,VALID,243,VALID,0.00120192,
2003-01-08, 02:09:00,VALID,919.15,VALID,0,VALID,97.5969,VALID,-0.101885,VALID,20.2896,VALID,243,VALID,0,
2003-01-08, 02:10:00,VALID,919.13,VALID,0,VALID,97.5372,VALID,-0.101885,VALID,20.2831,VALID,243,VALID,0,
2003-01-08, 02:11:01,VALID,919.123,VALID,0,VALID,97.5117,VALID,-0.118866,VALID,20.2931,VALID,242,VALID,0.0251267,
2003-01-08, 02:12:00,VALID,919.102,VALID,0,VALID,97.4825,VALID,-0.101885,VALID,20.2993,VALID,242,VALID,0,
2003-01-08, 02:13:00,VALID,919.071,VALID,0,VALID,97.3986,VALID,-0.101885,VALID,20.3028,VALID,228,VALID,0.261161,
2003-01-08, 02:14:01,VALID,919.052,VALID,0,VALID,97.3769,VALID,-0.0849042,VALID,20.2988,VALID,210,VALID,0.215179,
2003-01-08, 02:15:00,VALID,919.04,VALID,0,VALID,97.3782,VALID,-0.118866,VALID,20.3025,VALID,210,VALID,0.293269,
2003-01-08, 02:16:00,VALID,919.034,VALID,0,VALID,97.4125,VALID,-0.101885,VALID,20.3221,VALID,212,VALID,0.382813,
2003-01-08, 02:17:00,VALID,919.018,VALID,0,VALID,97.4685,VALID,-0.0849042,VALID,20.3251,VALID,225,VALID,0.228002,
2003-01-08, 02:18:00,VALID,919.021,VALID,0,VALID,97.4952,VALID,-0.0849042,VALID,20.3477,VALID,225,VALID,0.0147804,
2003-01-08, 02:19:00,VALID,919.02,VALID,0,VALID,97.4278,VALID,-0.118866,VALID,20.3448,VALID,225,VALID,0,
2003-01-08, 02:20:00,VALID,919.006,VALID,0,VALID,97.3604,VALID,-0.101885,VALID,20.348,VALID,225,VALID,0.00111607,
2003-01-08, 02:21:01,VALID,918.993,VALID,0,VALID,97.3248,VALID,-0.101885,VALID,20.3574,VALID,228,VALID,0.0046875,
2003-01-08, 02:22:00,VALID,918.99,VALID,0,VALID,97.2917,VALID,-0.101885,VALID,20.3604,VALID,236,VALID,0.144231,
2003-01-08, 02:23:00,VALID,918.985,VALID,0,VALID,97.246,VALID,0,VALID,20.3494,VALID,269,VALID,0.261719,
2003-01-08, 02:24:00,VALID,918.989,VALID,0,VALID,97.293,VALID,0,VALID,20.3462,VALID,277,VALID,0.109992,
2003-01-08, 02:25:01,VALID,918.983,VALID,0,VALID,97.3223,VALID,0,VALID,20.3462,VALID,277,VALID,0.0293497,
2003-01-08, 02:26:00,VALID,918.98,VALID,0,VALID,97.3235,VALID,0,VALID,20.3395,VALID,338,VALID,0.318668,
2003-01-08, 02:27:00,VALID,918.996,VALID,0,VALID,97.3337,VALID,-0.0169808,VALID,20.3457,VALID,354,VALID,0.259598,
2003-01-08, 02:28:01,VALID,919.009,VALID,0,VALID,97.2714,VALID,0,VALID,20.3422,VALID,359,VALID,0.290179,
2003-01-08, 02:29:00,VALID,919.008,VALID,0,VALID,97.1849,VALID,0.0169808,VALID,20.3457,VALID,359,VALID,0.242788,
2003-01-08, 02:30:00,VALID,919.002,VALID,0,VALID,97.1531,VALID,0,VALID,20.3403,VALID,359,VALID,0.015842,
2003-01-08, 02:31:00,VALID,918.989,VALID,0,VALID,97.1582,VALID,0,VALID,20.3204,VALID,359,VALID,0,
2003-01-08, 02:32:00,VALID,918.973,VALID,0,VALID,97.246,VALID,-0.0169808,VALID,20.3104,VALID,359,VALID,0.0844595,
2003-01-08, 02:33:00,VALID,918.957,VALID,0,VALID,97.2994,VALID,0,VALID,20.3072,VALID,360,VALID,0.378906,
2003-01-08, 02:34:00,VALID,918.967,VALID,0,VALID,97.307,VALID,0,VALID,20.3266,VALID,3,VALID,0.42567,
2003-01-08, 02:35:01,VALID,918.962,VALID,0,VALID,97.2027,VALID,-0.0169808,VALID,20.3174,VALID,3,VALID,0.415848,
2003-01-08, 02:36:00,VALID,918.946,VALID,0,VALID,97.1709,VALID,-0.0339617,VALID,20.3079,VALID,13,VALID,0.347756,
2003-01-08, 02:37:01,VALID,918.942,VALID,0,VALID,97.1493,VALID,-0.0169808,VALID,20.2945,VALID,16,VALID,0.290148,
2003-01-08, 02:38:00,VALID,918.933,VALID,0,VALID,97.1086,VALID,-0.0339617,VALID,20.2818,VALID,16,VALID,0.346217,
2003-01-08, 02:39:01,VALID,918.928,VALID,0,VALID,97.1226,VALID,-0.0169808,VALID,20.2584,VALID,30,VALID,0.384291,
2003-01-08, 02:40:00,VALID,918.933,VALID,0,VALID,97.1023,VALID,-0.0339617,VALID,20.246,VALID,35,VALID,0.405428,
2003-01-08, 02:41:00,VALID,918.941,VALID,0,VALID,97.1366,VALID,0,VALID,20.2465,VALID,37,VALID,0.364955,
2003-01-08, 02:42:01,VALID,918.937,VALID,0,VALID,97.176,VALID,-0.0169808,VALID,20.2234,VALID,40,VALID,0.45625,
2003-01-08, 02:43:00,VALID,918.94,VALID,0,VALID,97.232,VALID,-0.0169808,VALID,20.2008,VALID,44,VALID,0.430489,
2003-01-08, 02:44:01,VALID,918.922,VALID,0,VALID,97.3718,VALID,-0.0339617,VALID,20.1879,VALID,43,VALID,0.294922,
2003-01-08, 02:45:01,VALID,918.919,VALID,0,VALID,97.452,VALID,0,VALID,20.1911,VALID,44,VALID,0.154811,
2003-01-08, 02:46:00,VALID,918.913,VALID,0,VALID,97.527,VALID,-0.0339617,VALID,20.1717,VALID,44,VALID,0.162796,
2003-01-08, 02:47:00,VALID,918.904,VALID,0,VALID,97.6046,VALID,0,VALID,20.1687,VALID,43,VALID,0.00370066,
2003-01-08, 02:48:01,VALID,918.903,VALID,0,VALID,97.6948,VALID,-0.0679233,VALID,20.1784,VALID,44,VALID,0.0212054,
2003-01-08, 02:49:01,VALID,918.89,VALID,0,VALID,97.7838,VALID,-0.0339617,VALID,20.1946,VALID,44,VALID,0.121429,
2003-01-08, 02:50:01,VALID,918.879,VALID,0,VALID,97.8017,VALID,0,VALID,20.2142,VALID,44,VALID,0.0703125,
2003-01-08, 02:51:01,VALID,918.875,VALID,0,VALID,97.6669,VALID,-0.0169808,VALID,20.2043,VALID,44,VALID,0.182943,
2003-01-08, 02:52:01,VALID,918.853,VALID,0,VALID,97.6262,VALID,-0.0679233,VALID,20.1789,VALID,57,VALID,0.359169,
2003-01-08, 02:53:01,VALID,918.849,VALID,0,VALID,97.6999,VALID,-0.0849042,VALID,20.1623,VALID,113,VALID,0.364443,
2003-01-08, 02:54:01,VALID,918.835,VALID,0,VALID,97.7635,VALID,-0.0679233,VALID,20.1625,VALID,127,VALID,0.447574,
2003-01-08, 02:55:01,VALID,918.817,VALID,0,VALID,97.8271,VALID,-0.0679233,VALID,20.1464,VALID,118,VALID,0.325893,
2003-01-08, 02:56:01,VALID,918.805,VALID,0,VALID,97.9085,VALID,-0.0169808,VALID,20.1528,VALID,92,VALID,0.30625,
2003-01-08, 02:57:01,VALID,918.797,VALID,0,VALID,97.9657,VALID,-0.0339617,VALID,20.1558,VALID,65,VALID,0.601963,
2003-01-08, 02:58:01,VALID,918.767,VALID,0,VALID,97.9771,VALID,-0.0679233,VALID,20.1528,VALID,60,VALID,0.561632,
2003-01-08, 02:59:01,VALID,918.771,VALID,0,VALID,97.9593,VALID,-0.0169808,VALID,20.1623,VALID,56,VALID,0.43565,
2003-01-08, 03:00:01,VALID,918.767,VALID,0,VALID,97.9097,VALID,-0.0339617,VALID,20.1491,VALID,77,VALID,0.554265,
2003-01-08, 03:01:01,VALID,918.759,VALID,0,VALID,97.8487,VALID,-0.0339617,VALID,20.1329,VALID,85,VALID,0.440789,
2003-01-08, 03:02:01,VALID,918.741,VALID,0,VALID,97.9008,VALID,-0.0169808,VALID,20.1165,VALID,84,VALID,0.0486607,
2003-01-08, 03:03:01,VALID,918.724,VALID,0,VALID,97.9873,VALID,-0.0169808,VALID,20.1237,VALID,84,VALID,0.00267857,
2003-01-08, 03:04:01,VALID,918.718,VALID,0,VALID,97.9873,VALID,-0.0339617,VALID,20.1434,VALID,84,VALID,0.209736,
2003-01-08, 03:05:01,VALID,918.691,VALID,0,VALID,97.9364,VALID,-0.0169808,VALID,20.1203,VALID,128,VALID,0.365885,
2003-01-08, 03:06:01,VALID,918.661,VALID,0,VALID,97.9288,VALID,-0.0509425,VALID,20.1141,VALID,168,VALID,0.386924,
2003-01-08, 03:07:00,VALID,918.636,VALID,0,VALID,97.9822,VALID,-0.0339617,VALID,20.1178,VALID,168,VALID,0.258024,
2003-01-08, 03:08:00,VALID,918.623,VALID,0,VALID,98.0038,VALID,-0.0169808,VALID,20.1071,VALID,168,VALID,0.151727,
2003-01-08, 03:09:00,VALID,918.607,VALID,0,VALID,98.0255,VALID,-0.0509425,VALID,20.1138,VALID,144,VALID,0.277009,
2003-01-08, 03:10:00,VALID,918.598,VALID,0,VALID,98.0191,VALID,-0.0509425,VALID,20.1173,VALID,92,VALID,0.430134,
2003-01-08, 03:11:00,VALID,918.589,VALID,0,VALID,97.9962,VALID,0,VALID,20.1004,VALID,88,VALID,0.511619,
2003-01-08, 03:12:00,VALID,918.58,VALID,0,VALID,98.0153,VALID,-0.0509425,VALID,20.1006,VALID,99,VALID,0.498047,
2003-01-08, 03:13:00,VALID,918.574,VALID,0,VALID,98.0687,VALID,-0.0339617,VALID,20.0879,VALID,119,VALID,0.495477,
2003-01-08, 03:14:00,VALID,918.566,VALID,0,VALID,98.1259,VALID,-0.0339617,VALID,20.0847,VALID,102,VALID,0.484797,
2003-01-08, 03:15:00,VALID,918.557,VALID,0,VALID,98.1857,VALID,0,VALID,20.0715,VALID,52,VALID,0.479235,
2003-01-08, 03:16:00,VALID,918.555,VALID,0,VALID,98.2836,VALID,-0.0339617,VALID,20.0845,VALID,60,VALID,0.467411,
2003-01-08, 03:17:00,VALID,918.545,VALID,0,VALID,98.3306,VALID,-0.0679233,VALID,20.0715,VALID,47,VALID,0.591295,
2003-01-08, 03:18:00,VALID,918.541,VALID,0,VALID,98.379,VALID,-0.0169808,VALID,20.0877,VALID,77,VALID,0.466146,
2003-01-08, 03:19:00,VALID,918.537,VALID,0,VALID,98.3561,VALID,0,VALID,20.078,VALID,71,VALID,0.508464,
2003-01-08, 03:20:00,VALID,918.537,VALID,0,VALID,98.3573,VALID,-0.0169808,VALID,20.072,VALID,76,VALID,0.648232,
2003-01-08, 03:21:00,VALID,918.538,VALID,0,VALID,98.3815,VALID,-0.0339617,VALID,20.0524,VALID,72,VALID,0.403927,
2003-01-08, 03:22:00,VALID,918.534,VALID,0,VALID,98.4425,VALID,-0.0339617,VALID,20.0591,VALID,66,VALID,0.283923,
2003-01-08, 03:23:00,VALID,918.544,VALID,0,VALID,98.3929,VALID,0.0679233,VALID,20.0482,VALID,70,VALID,0.471205,
2003-01-08, 03:24:00,VALID,918.531,VALID,0,VALID,98.3243,VALID,0.101885,VALID,20.0218,VALID,46,VALID,0.475446,
2003-01-08, 03:25:00,VALID,918.539,VALID,0,VALID,98.3891,VALID,0.101885,VALID,20.0153,VALID,30,VALID,0.376803,
2003-01-08, 03:26:00,VALID,918.55,VALID,0,VALID,98.4629,VALID,0.0679233,VALID,20.0153,VALID,24,VALID,0.24197,
2003-01-08, 03:27:00,VALID,918.551,VALID,0,VALID,98.557,VALID,0.0509425,VALID,20.038,VALID,24,VALID,0.0999178,
2003-01-08, 03:28:00,VALID,918.541,VALID,0,VALID,98.4972,VALID,0.0849042,VALID,20.0514,VALID,24,VALID,0,
2003-01-08, 03:29:00,VALID,918.546,VALID,0,VALID,98.5176,VALID,0.0509425,VALID,20.0412,VALID,24,VALID,0,
2003-01-08, 03:30:00,VALID,918.541,VALID,0,VALID,98.5366,VALID,0.0169808,VALID,20.0641,VALID,24,VALID,0,
2003-01-08, 03:31:00,VALID,918.539,VALID,0,VALID,98.5519,VALID,0.0509425,VALID,20.0705,VALID,24,VALID,0,
2003-01-08, 03:32:00,VALID,918.532,VALID,0,VALID,98.5303,VALID,0.0509425,VALID,20.08,VALID,24,VALID,0,